Location: ??????????
(48.5701°N, 37.7703°E)
Time: 01:34:15
(UTC+00:00)

CZ-4C R/B - Visible Passes

Search period start: 24 October 2020 00:00
Search period end: 03 November 2020 00:00
Orbit: 407 x 491 km, 97.7° (Epoch: 23 October)

Date Brightness Start Highest point End Pass type
(mag) Time Alt. Az. Time Alt. Az. Time Alt. Az.
25 Oct 5.9 15:36:27 10° NNW 15:38:11 14° WNW 15:39:55 10° W visible
26 Oct 4.8 15:00:23 10° N 15:03:21 32° WNW 15:06:20 10° SW visible
28 Oct 5.7 15:23:21 10° NNW 15:25:45 19° WNW 15:28:10 10° WSW visible
29 Oct 4.0 14:47:38 10° N 14:50:50 48° WNW 14:54:05 10° SSW visible
30 Oct 6.1 15:46:52 10° NW 15:48:04 12° WNW 15:49:17 10° W visible
31 Oct 5.2 15:10:25 10° N 15:13:16 27° WNW 15:16:09 10° SW visible
02 Nov 5.9 15:33:27 10° NNW 15:35:36 16° WNW 15:37:45 10° WSW visible
